Fallon NAS, NV

7:43 AM PST on November 20, 2017 (GMT -0800)
Fallon Naval Air Station

Weather History for KNFL - April, 2013

Change the Weather History Date:

Monday, April 1, 2013

  Actual Average Record
Temperature  
Mean Temperature 46 °F -  
Max Temperature 61 °F 60 °F 87 °F (1966)
Min Temperature 33 °F 30 °F 15 °F (1975)
Degree Days  
Heating Degree Days 18    
Moisture  
Dew Point 32 °F    
Average Humidity 59    
Maximum Humidity 92    
Minimum Humidity 28    
Precipitation  
Precipitation 0.00 in - - ()
Sea Level Pressure  
Sea Level Pressure 29.98 in    
Wind  
Wind Speed 6 mph (West)    
Max Wind Speed 15 mph    
Max Gust Speed 21 mph    
Visibility 10 miles    
Events Rain    
Averages and records for this station are not official NWS values.
T = Trace of Precipitation, MM = Missing Value Source: NWS Daily Summary

Daily Weather History Graph

Daily Weather History Graph

Search for Another Location

Airport or City:

Trip Planner

Search our weather history database for the weather conditions in past years. The results will help you decide how hot, cold, wet, or windy it might be!

Date:

Astronomy

Apr. 01, 2013 Rise Set
Actual Time 6:38 AM PDT 7:19 PM PDT
Civil Twilight 6:11 AM PDT 7:46 PM PDT
Nautical Twilight 5:39 AM PDT 8:18 PM PDT
Astronomical Twilight 5:06 AM PDT 8:51 PM PDT
Moon 12:30 AM PDT (4/1) 10:31 AM PDT (4/1)
Length of Visible Light 13h 34m
Length of Day
12h 40m
Waning Gibbous, 66% of the Moon is Illuminated
Apr 1
Waning Gibbous
Apr 2
Last Quarter
Apr 10
New
Apr 18
First Quarter
Apr 25
Full

Hourly Weather History & Observations

Time (PDT) Temp. Windchill Dew Point Humidity Pressure Visibility Wind Dir Wind Speed Gust Speed Precip Events Conditions
12:56 AM 37.0 °F 31.6 °F 34.0 °F 89% 29.92 in 10.0 mi South 6.9 mph - N/A   Clear
1:56 AM 36.0 °F - 33.1 °F 89% 29.93 in 10.0 mi Calm Calm - N/A   Scattered Clouds
2:56 AM 33.1 °F - 30.9 °F 92% 29.93 in 10.0 mi Calm Calm - N/A   Clear
3:56 AM 34.0 °F 29.8 °F 32.0 °F 92% 29.94 in 10.0 mi SSW 4.6 mph - N/A   Mostly Cloudy
4:56 AM 36.0 °F 32.1 °F 32.0 °F 86% 29.94 in 10.0 mi SE 4.6 mph - N/A   Mostly Cloudy
5:56 AM 39.0 °F 35.7 °F 32.0 °F 76% 29.95 in 10.0 mi SSW 4.6 mph - N/A   Mostly Cloudy
6:14 AM 35.6 °F 32.8 °F 32.0 °F 87% 30.05 in 10.0 mi SE 3.5 mph - N/A   Mostly Cloudy
6:56 AM 35.1 °F 30.1 °F 32.0 °F 89% 29.97 in 10.0 mi ESE 5.8 mph - N/A   Mostly Cloudy
7:56 AM 39.0 °F 34.8 °F 35.1 °F 86% 29.98 in 10.0 mi SSE 5.8 mph - N/A   Mostly Cloudy
8:56 AM 44.1 °F 41.5 °F 37.0 °F 76% 29.99 in 10.0 mi South 4.6 mph - N/A   Mostly Cloudy
9:56 AM 50.0 °F - 36.0 °F 59% 29.99 in 10.0 mi SW 4.6 mph - N/A   Mostly Cloudy
10:56 AM 52.0 °F - 33.1 °F 49% 29.99 in 10.0 mi WNW 4.6 mph - N/A   Mostly Cloudy
11:56 AM 55.9 °F - 32.0 °F 40% 29.99 in 10.0 mi West 9.2 mph - N/A   Mostly Cloudy
12:56 PM 60.1 °F - 30.0 °F 32% 29.98 in 10.0 mi NNW 6.9 mph - N/A   Mostly Cloudy
1:14 PM 57.2 °F - 28.4 °F 33% 30.07 in 10.0 mi Variable 4.6 mph - 0.00 in Rain Light Rain
1:37 PM 57.2 °F - 30.2 °F 36% 30.06 in 10.0 mi SW 10.4 mph 20.7 mph 0.00 in   Mostly Cloudy
1:56 PM 57.9 °F - 30.9 °F 36% 29.97 in 10.0 mi NNE 6.9 mph 18.4 mph 0.00 in   Mostly Cloudy
2:56 PM 60.1 °F - 30.9 °F 33% 29.95 in 10.0 mi NNE 6.9 mph - N/A   Mostly Cloudy
3:56 PM 60.1 °F - 27.0 °F 28% 29.94 in 10.0 mi NNW 11.5 mph 17.3 mph N/A   Mostly Cloudy
4:56 PM 60.1 °F - 28.0 °F 30% 29.94 in 10.0 mi WNW 10.4 mph 19.6 mph N/A   Mostly Cloudy
5:56 PM 59.0 °F - 30.0 °F 33% 29.95 in 10.0 mi NW 13.8 mph - N/A   Mostly Cloudy
6:56 PM 55.9 °F - 32.0 °F 40% 29.96 in 10.0 mi WNW 15.0 mph - N/A   Mostly Cloudy
7:56 PM 55.0 °F - 30.0 °F 38% 29.97 in 10.0 mi NW 10.4 mph - N/A   Mostly Cloudy
8:56 PM 52.0 °F - 35.1 °F 53% 29.99 in 10.0 mi NW 10.4 mph - N/A   Scattered Clouds
9:56 PM 50.0 °F - 35.1 °F 57% 30.00 in 10.0 mi WNW 9.2 mph - N/A   Scattered Clouds
10:56 PM 48.0 °F - 36.0 °F 63% 30.00 in 10.0 mi WNW 9.2 mph - N/A   Partly Cloudy
11:56 PM 42.1 °F 40.2 °F 34.0 °F 73% 30.01 in 10.0 mi South 3.5 mph - N/A   Clear